カタログに戻る

FENGYUN 1C DEB

運用中SSO
NORAD 46992·DEBRIS·🇨🇳 China

打ち上げ May 10, 1999 から Taiyuan Satellite Launch Center

Loading…

次のパス (今後24時間)

TLE

最新Source: Space-Track

元期: Sep 12, 2026, 05:42 UTC

1 46992U 99025EZS 26255.23762112  .00000307  00000-0  22845-3 0  9993
2 46992  98.9566 240.8193 0072197 121.5220 239.3024 14.01035355647862

AllMySatでFENGYUN 1C DEBをリアルタイム追跡

Download on the App Store